Wausau, WI

11:35 AM CDT on March 28, 2017 (GMT -0500)
Wausau Downtown

Weather History for KAUW - January, 2014

Change the Weather History Date:

Thursday, January 16, 2014

  Actual Average Record
Temperature  
Mean Temperature 18 °F 14 °F  
Max Temperature 28 °F 23 °F 45 °F (1973)
Min Temperature 8 °F 6 °F -28 °F (1972)
Degree Days  
Heating Degree Days 47 51  
Month to date heating degree days 917 810  
Since 1 July heating degree days 4390 4096  
Cooling Degree Days 0 0  
Month to date cooling degree days 0 0  
Year to date cooling degree days 0 0  
Moisture  
Dew Point 15 °F    
Average Humidity 84    
Maximum Humidity 92    
Minimum Humidity 76    
Precipitation  
Precipitation 0.13 in 0.03 in 0.67 in (1980)
Month to date precipitation 0.89 0.55  
Year to date precipitation 0.89 0.55  
Snow  
Snow 2.60 in 0.40 in 7.90 in (1967)
Month to date snowfall 12.4 6.9  
Since 1 July snowfall 41.1 29.1  
Snow Depth 20.00 in    
Sea Level Pressure  
Sea Level Pressure 29.46 in    
Wind  
Wind Speed 10 mph (WSW)    
Max Wind Speed 23 mph    
Max Gust Speed 30 mph    
Visibility 5 miles    
Events Rain , Snow    
T = Trace of Precipitation, MM = Missing Value Source: NWS Daily Summary

Daily Weather History Graph

Daily Weather History Graph

Search for Another Location

Airport or City:

Trip Planner

Search our weather history database for the weather conditions in past years. The results will help you decide how hot, cold, wet, or windy it might be!

Date:

Astronomy

Jan. 16, 2014 Rise Set
Actual Time 7:32 AM CST 4:44 PM CST
Civil Twilight 6:59 AM CST 5:17 PM CST
Nautical Twilight 6:23 AM CST 5:53 PM CST
Astronomical Twilight 5:48 AM CST 6:28 PM CST
Moon 5:40 PM CST (1/16) 7:22 AM CST (1/16)
Length of Visible Light 10h 17m
Length of Day
9h 12m
Full, 100% of the Moon is Illuminated
Jan 16
Full
Jan 23
Last Quarter
Jan 30
New
Feb 6
First Quarter
Feb 14
Full

Hourly Weather History & Observations

Time (CST) Temp. Windchill Dew Point Humidity Pressure Visibility Wind Dir Wind Speed Gust Speed Precip Events Conditions
12:32 AM 12.0 °F -5.1 °F 8.1 °F 84% 29.45 in 2.0 mi South 17.3 mph - 0.00 in Snow Light Snow
12:36 AM 12.0 °F -4.0 °F 8.1 °F 84% 29.45 in 0.8 mi South 15.0 mph 21.9 mph 0.00 in Snow Light Snow
12:50 AM 12.2 °F -3.1 °F 8.6 °F 85% 29.44 in 1.5 mi South 13.8 mph - 0.00 in Snow Light Snow
12:54 AM 12.0 °F -3.4 °F 9.0 °F 88% 29.53 in 1.5 mi South 13.8 mph - 0.00 in Snow Light Snow
1:24 AM 12.9 °F -3.4 °F 10.0 °F 88% 29.43 in 2.0 mi South 16.1 mph - 0.00 in Snow Light Snow
1:36 AM 12.9 °F -0.9 °F 10.9 °F 92% 29.43 in 1.5 mi South 11.5 mph - 0.00 in Snow Light Snow
1:43 AM 14.0 °F 0.5 °F 10.0 °F 84% 29.43 in 3.0 mi South 11.5 mph - 0.00 in Snow Light Snow
1:54 AM 14.0 °F 1.2 °F 10.9 °F 88% 29.51 in 6.0 mi South 10.4 mph - 0.00 in   Overcast
2:35 AM 16.0 °F 2.3 °F 12.0 °F 84% 29.40 in 9.0 mi South 12.7 mph - 0.00 in   Overcast
2:54 AM 16.0 °F 3.6 °F 12.9 °F 88% 29.47 in 10.0 mi South 10.4 mph - 0.00 in   Overcast
3:54 AM 18.0 °F 3.6 °F 14.0 °F 84% 29.44 in 10.0 mi South 15.0 mph - N/A   Overcast
4:54 AM 19.0 °F 9.0 °F 14.0 °F 81% 29.43 in 10.0 mi South 8.1 mph - N/A   Overcast
5:54 AM 19.9 °F 11.1 °F 15.1 °F 81% 29.42 in 10.0 mi South 6.9 mph - N/A   Overcast
6:54 AM 19.9 °F 9.3 °F 16.0 °F 85% 29.41 in 10.0 mi SSW 9.2 mph - N/A   Overcast
7:54 AM 21.0 °F 10.6 °F 17.1 °F 85% 29.40 in 10.0 mi SSW 9.2 mph - N/A   Overcast
8:54 AM 21.9 °F 12.5 °F 18.0 °F 85% 29.42 in 10.0 mi South 8.1 mph - N/A   Overcast
9:54 AM 23.0 °F 13.1 °F 19.0 °F 85% 29.42 in 6.0 mi South 9.2 mph - 0.00 in Snow Light Snow
10:01 AM 23.0 °F 13.1 °F 19.0 °F 85% 29.34 in 6.0 mi South 9.2 mph - 0.00 in Snow Light Snow
10:36 AM 24.1 °F 16.0 °F 19.9 °F 84% 29.35 in 6.0 mi South 6.9 mph - 0.00 in Snow Light Snow
10:54 AM 24.1 °F 14.4 °F 21.0 °F 88% 29.42 in 9.0 mi South 9.2 mph - 0.00 in   Overcast
11:15 AM 24.1 °F 16.0 °F 21.0 °F 88% 29.33 in 10.0 mi SSW 6.9 mph - N/A   Overcast
11:54 AM 25.0 °F 18.1 °F 21.9 °F 88% 29.39 in 10.0 mi SSW 5.8 mph - N/A   Overcast
12:44 PM 26.1 °F - 23.0 °F 88% 29.32 in 9.0 mi Calm Calm - N/A   Overcast
12:54 PM 26.1 °F - 23.0 °F 88% 29.39 in 10.0 mi Calm Calm - N/A   Overcast
1:42 PM 27.0 °F 23.0 °F 24.1 °F 89% 29.33 in 2.5 mi West 3.5 mph - N/A   Overcast
1:54 PM 27.0 °F 21.6 °F 25.0 °F 92% 29.40 in 1.8 mi WNW 4.6 mph - 0.00 in   Overcast
2:03 PM 27.0 °F 20.5 °F 26.1 °F 96% 29.34 in 2.0 mi West 5.8 mph - 0.00 in Rain Light Freezing Rain
2:14 PM 27.0 °F 19.5 °F 26.1 °F 96% 29.34 in 2.0 mi West 6.9 mph - 0.00 in Snow Light Snow
2:23 PM 28.0 °F 21.7 °F 26.1 °F 92% 29.34 in 1.2 mi WNW 5.8 mph - 0.00 in Snow Light Snow
2:36 PM 28.0 °F 18.6 °F 25.0 °F 88% 29.35 in 2.5 mi NW 10.4 mph - 0.01 in Snow Light Snow
2:43 PM 28.0 °F 18.6 °F 25.0 °F 88% 29.35 in 4.0 mi WNW 10.4 mph - 0.01 in Snow Light Snow
2:54 PM 28.0 °F 18.1 °F 24.1 °F 85% 29.43 in 6.0 mi NW 11.5 mph - 0.01 in Snow Light Snow
3:16 PM 25.0 °F 14.2 °F 21.9 °F 88% 29.38 in 2.5 mi WNW 11.5 mph - 0.00 in Snow Light Snow
3:25 PM 25.0 °F 12.2 °F 21.0 °F 85% 29.38 in 1.2 mi West 16.1 mph - 0.00 in Snow Light Snow
3:43 PM 24.1 °F 11.5 °F 19.9 °F 84% 29.39 in 3.0 mi WNW 15.0 mph - 0.00 in Snow Light Snow
3:54 PM 24.1 °F 13.1 °F 19.9 °F 84% 29.47 in 6.0 mi WNW 11.5 mph - 0.00 in Snow Light Snow
4:29 PM 21.0 °F 6.2 °F 15.1 °F 78% 29.44 in 10.0 mi NW 18.4 mph - 0.00 in   Overcast
4:54 PM 19.0 °F 4.5 °F 14.0 °F 81% 29.53 in 8.0 mi NW 16.1 mph 29.9 mph 0.00 in Snow Light Snow
5:05 PM 18.0 °F 2.2 °F 12.9 °F 81% 29.47 in 1.8 mi NW 18.4 mph 27.6 mph 0.00 in Snow Light Snow
5:21 PM 17.1 °F 3.6 °F 14.0 °F 88% 29.49 in 0.8 mi NW 12.7 mph - 0.00 in Snow Light Snow
5:42 PM 16.0 °F 1.1 °F 12.0 °F 84% 29.50 in 0.8 mi NW 15.0 mph 23.0 mph 0.01 in Snow Light Snow
5:54 PM 16.0 °F 2.3 °F 10.9 °F 81% 29.59 in 1.2 mi NW 12.7 mph 23.0 mph 0.01 in Snow Light Snow
6:14 PM 15.1 °F 0.5 °F 10.9 °F 84% 29.53 in 1.5 mi WNW 13.8 mph - 0.00 in Snow Light Snow
6:33 PM 14.0 °F -0.8 °F 9.0 °F 80% 29.54 in 2.0 mi NW 13.8 mph 21.9 mph 0.00 in Snow Light Snow
6:54 PM 14.0 °F -0.2 °F 9.0 °F 80% 29.62 in 2.5 mi NW 12.7 mph 23.0 mph 0.00 in Snow Light Snow
7:09 PM 12.9 °F -2.2 °F 8.1 °F 81% 29.55 in 3.0 mi NW 13.8 mph 25.3 mph 0.00 in Snow Light Snow
7:54 PM 10.9 °F -4.1 °F 6.1 °F 81% 29.65 in 8.0 mi NW 12.7 mph - 0.00 in Snow Light Snow
8:39 PM 10.0 °F -4.5 °F 3.9 °F 76% 29.59 in 2.5 mi NNW 11.5 mph 21.9 mph 0.00 in Snow Light Snow
8:54 PM 10.0 °F -5.2 °F 5.0 °F 80% 29.68 in 3.0 mi NW 12.7 mph - 0.00 in Snow Light Snow
9:54 PM 9.0 °F -5.9 °F 3.9 °F 80% 29.69 in 8.0 mi NW 11.5 mph - 0.00 in Snow Light Snow
10:54 PM 8.1 °F -7.0 °F 3.9 °F 83% 29.70 in 4.0 mi NW 11.5 mph - 0.00 in Snow Light Snow
11:20 PM 8.1 °F -5.3 °F 3.9 °F 83% 29.62 in 4.0 mi NW 9.2 mph - 0.00 in Snow Light Snow
11:54 PM 9.0 °F -4.2 °F 3.9 °F 80% 29.69 in 5.0 mi NW 9.2 mph - 0.00 in Snow Light Snow